Myrtle Beach, SC

3:59 PM EDT on May 20, 2018 (GMT -0400)
Myrtle Beach International

Weather History for KMYR - October, 2011

Change the Weather History Date:

Sunday, October 16, 2011

  Actual Average Record
Temperature  
Mean Temperature 62 °F -  
Max Temperature 73 °F 72 °F 86 °F (2008)
Min Temperature 50 °F 53 °F 40 °F (1954)
Degree Days  
Heating Degree Days 4    
Growing Degree Days 12 (Base 50)    
Moisture  
Dew Point 48 °F    
Average Humidity 61    
Maximum Humidity 76    
Minimum Humidity 36    
Precipitation  
Precipitation 0.00 in - - ()
Sea Level Pressure  
Sea Level Pressure 30.08 in    
Wind  
Wind Speed 8 mph (WSW)    
Max Wind Speed 12 mph    
Max Gust Speed -    
Visibility 10 miles    
Events      
Averages and records for this station are not official NWS values.
T = Trace of Precipitation, MM = Missing Value Source: NWS Daily Summary

Daily Weather History Graph

Daily Weather History Graph

Search for Another Location

Airport or City:

Astronomy

Oct. 16, 2011 Rise Set
Actual Time 7:21 AM EDT 6:41 PM EDT
Civil Twilight 6:55 AM EDT 7:06 PM EDT
Nautical Twilight 6:27 AM EDT 7:35 PM EDT
Astronomical Twilight 5:58 AM EDT 8:03 PM EDT
Moon 9:37 PM EDT (10/16) 11:24 AM EDT (10/16)
Length of Visible Light 12h 10m
Length of Day
11h 19m
Waning Gibbous, 82% of the Moon is Illuminated
Oct 16
Waning Gibbous
Oct 19
Last Quarter
Oct 26
New
Nov 2
First Quarter
Nov 10
Full

Hourly Weather History & Observations

Time (EDT) Temp. Dew Point Humidity Pressure Visibility Wind Dir Wind Speed Gust Speed Precip Events Conditions
12:15 AM 66.2 °F 50.0 °F 56% 30.04 in 10.0 mi WSW 8.1 mph - N/A   Clear
12:35 AM 64.4 °F 50.0 °F 59% 30.04 in 10.0 mi WSW 6.9 mph - N/A   Clear
12:55 AM 64.4 °F 50.0 °F 59% 30.04 in 10.0 mi WSW 8.1 mph - N/A   Clear
1:15 AM 62.6 °F 50.0 °F 63% 30.04 in 10.0 mi WSW 9.2 mph - N/A   Clear
1:35 AM 62.6 °F 48.2 °F 59% 30.04 in 10.0 mi WSW 9.2 mph - N/A   Clear
1:55 AM 62.6 °F 48.2 °F 59% 30.05 in 10.0 mi WSW 9.2 mph - N/A   Clear
2:15 AM 60.8 °F 48.2 °F 63% 30.05 in 10.0 mi West 9.2 mph - N/A   Clear
2:35 AM 60.8 °F 48.2 °F 63% 30.05 in 10.0 mi West 9.2 mph - N/A   Clear
2:55 AM 60.8 °F 46.4 °F 59% 30.05 in 10.0 mi WNW 9.2 mph - N/A   Clear
3:15 AM 59.0 °F 46.4 °F 63% 30.05 in 10.0 mi WNW 10.4 mph - N/A   Clear
3:35 AM 57.2 °F 46.4 °F 67% 30.06 in 10.0 mi WNW 8.1 mph - N/A   Clear
3:55 AM 57.2 °F 44.6 °F 63% 30.05 in 10.0 mi WNW 6.9 mph - N/A   Clear
4:15 AM 55.4 °F 44.6 °F 67% 30.06 in 10.0 mi NW 4.6 mph - N/A   Clear
4:35 AM 55.4 °F 44.6 °F 67% 30.06 in 10.0 mi NW 3.5 mph - N/A   Clear
4:55 AM 53.6 °F 44.6 °F 72% 30.06 in 10.0 mi WNW 5.8 mph - N/A   Clear
5:15 AM 51.8 °F 44.6 °F 76% 30.07 in 10.0 mi WNW 5.8 mph - N/A   Clear
5:35 AM 53.6 °F 44.6 °F 72% 30.08 in 10.0 mi Calm Calm - N/A   Clear
5:53 AM 53.6 °F 44.6 °F 72% 30.10 in 10.0 mi North 6.9 mph - N/A   Clear
5:55 AM 53.6 °F 44.6 °F 72% 30.09 in 10.0 mi Calm Calm - N/A   Clear
6:47 AM 50.0 °F 42.8 °F 76% 30.12 in 10.0 mi NNW 6.9 mph - N/A   Clear
7:48 AM 51.8 °F 44.6 °F 76% 30.12 in 10.0 mi East 6.9 mph - N/A   Clear
8:45 AM 57.2 °F 46.4 °F 67% 30.15 in 10.0 mi North 5.8 mph - N/A   Clear
9:45 AM 64.4 °F 46.4 °F 52% 30.17 in 10.0 mi North 11.5 mph - N/A   Clear
10:45 AM 69.8 °F 44.6 °F 40% 30.17 in 10.0 mi NNE 9.2 mph - N/A   Clear
11:45 AM 73.4 °F 44.6 °F 36% 30.16 in 10.0 mi NE 9.2 mph - N/A   Clear
12:45 PM 73.4 °F 46.4 °F 38% 30.15 in 10.0 mi SSE 11.5 mph - N/A   Clear
1:47 PM 73.4 °F 46.4 °F 38% 30.11 in 10.0 mi SSE 11.5 mph - N/A   Clear
2:48 PM 71.6 °F 48.2 °F 43% 30.08 in - SSE 9.2 mph - N/A   Clear
3:51 PM 71.6 °F 48.2 °F 43% 30.07 in 10.0 mi SSE 10.4 mph - N/A   Clear
4:45 PM 71.6 °F 48.2 °F 43% 30.06 in 10.0 mi South 11.5 mph - N/A   Clear
5:45 PM 71.6 °F 50.0 °F 46% 30.06 in 10.0 mi SSW 11.5 mph - N/A   Clear
7:53 PM 60.8 °F 51.8 °F 72% 30.06 in 10.0 mi South 6.9 mph - N/A   Clear
8:45 PM 68.0 °F 53.6 °F 60% 30.06 in 10.0 mi South 6.9 mph - N/A   Clear
9:55 PM 60.8 °F 51.8 °F 72% 30.07 in 10.0 mi WSW 6.9 mph - N/A   Clear
11:15 PM 60.8 °F 51.8 °F 72% 30.06 in 10.0 mi SW 4.6 mph - N/A   Clear
11:35 PM 62.6 °F 51.8 °F 68% 30.06 in 10.0 mi SW 5.8 mph - N/A   Clear
11:55 PM 62.6 °F 51.8 °F 68% 30.05 in 10.0 mi SSW 4.6 mph - N/A   Clear